Regional Weather Roundup
Issued by NWS Wilmington, NC

Home | Current Version | Previous Version | Text Only | Print | Product List | Glossary On
Versions: 1 2 3 4 5 6 7 8 9 10 11 12 13 14 15 16 17 18 19 20 21 22 23 24 25 26 27
000
ASUS42 KILM 171113
RWRILM
RWRILM
REGIONAL HOURLY WEATHER ROUNDUP
NATIONAL WEATHER SERVICE WILMINGTON NC
700 AM EDT TUE OCT 17 2017

NOTE: "FAIR" INDICATES FEW OR NO CLOUDS BELOW 12,000 FEET WITH NO
SIGNIFICANT WEATHER AND/OR OBSTRUCTIONS TO VISIBILITY.

...............WFO WILMINGTON COUNTY WARNING AREA...............

......COASTAL NC AND SC COUNTIES......

CITY           SKY/WX    TMP DP  RH WIND       PRES   REMARKS
WILMINGTON     CLOUDY    50  43  77 N8        30.22R
N MYRTLE BEACH PTCLDY    54  41  61 NE15      30.21R
MYRTLE BEACH   CLOUDY    53  43  68 N14       30.23R

......INLAND NC AND SC COUNTIES.......

CITY           SKY/WX    TMP DP  RH WIND       PRES   REMARKS
LUMBERTON        N/A    N/A N/A N/A N10       30.26R
ELIZABETHTOWN  NOT AVBL
WHITEVILLE     MOCLDY    50  42  74 N6        30.24R
FLORENCE       MOCLDY    48  44  86 N9        30.27R
DARLINGTON     PTCLDY    48  43  82 N7        30.28R
KINGSTREE      FAIR      50  45  81 N6        30.25R
HARTSVILLE     FAIR      46  39  76 N9        30.27R
BENNETTSVILLE  FAIR      48  45  87 N3        30.27R
CONWAY         FAIR      50  45  81 N9        30.24R
GEORGETOWN     NOT AVBL
MARION         FAIR     N/A N/A N/A N6        30.26R

....................REST OF NORTH CAROLINA......................

.........EASTERN NC.........

CITY           SKY/WX    TMP DP  RH WIND       PRES   REMARKS
CAPE HATTERAS  PTCLDY    62  48  60 NE17G31   30.17R
JACKSONVILLE   CLOUDY    48  42  80 N7        30.24R
MOREHEAD CITY  PTCLDY    56  47  71 N12       30.19R
KENANSVILLE    PTCLDY    46  41  81 N3        30.26R
NEW BERN       CLOUDY    50  45  83 N10       30.24R
ELIZABETH CITY CLEAR     54  46  74 N16G22    30.24R

.........CENTRAL NC.........

CITY           SKY/WX    TMP DP  RH WIND       PRES   REMARKS
RALEIGH DURHAM PTCLDY    46  41  82 N5        30.30R
ROCKY MOUNT    PTCLDY    47  40  76 N12       30.28R
ROANOKE RAPIDS NOT AVBL
FAYETTEVILLE   CLEAR     49  43  80 N12       30.26R
HOFFMAN        PTCLDY    47  41  81 N7        30.28R

.........WESTERN NC.........

CITY           SKY/WX    TMP DP  RH WIND       PRES   REMARKS
CHARLOTTE      CLEAR     45  41  86 N8        30.31R
GREENSBORO     PTCLDY    44  40  85 N5        30.31R
HICKORY        NOT AVBL
BOONE          NOT AVBL
ASHEVILLE      NOT AVBL

.....................REST OF SOUTH CAROLINA.....................

.........EASTERN SC.........

CITY           SKY/WX    TMP DP  RH WIND       PRES   REMARKS
CHARLESTON     CLOUDY    55  47  74 NE14      30.21R
BEAUFORT MCAS  CLOUDY    57  52  83 N7        30.21R
HILTON HEAD    CLEAR     59  46  63 NE18G28   30.19R

.........CENTRAL SC.........

CITY           SKY/WX    TMP DP  RH WIND       PRES   REMARKS
COLUMBIA       CLOUDY    51  42  71 N5        30.27R
ORANGEBURG     PTCLDY    51  42  71 NE9       30.25R
SUMTER SHAW    PTCLDY    47  41  79 NE9       30.24R

.........WESTERN SC.........

CITY           SKY/WX    TMP DP  RH WIND       PRES   REMARKS
GREENVILLE     NOT AVBL
ROCK HILL      CLEAR     49  42  77 NE7       30.30R
ANDERSON       CLEAR     47  40  76 N3        30.31R
CLEMSON        NOT AVBL
GREENWOOD      CLOUDY    47  41  80 NE7       30.31R


...................COASTAL AND OFFSHORE REPORTS..................

................LOCAL PIERS AND NC RESERVE................


STATION/POSITION TIME  SKY/WX   TEMP    WIND        PRES    VSBY
                                AIR SEA DIR/SP/G
                 (UTC)          (F)     (DEG/KT/KT) (MB)    (MI)
JOHNY MRCER PIER 1048            53 76  360/ 17/ 20 1022.1R
NC RESRV MASNBRO 0945            54      20/  3     1022.0
OCEAN CREST PIER NOT AVBL
SPRINGMAID  PIER 1048                               1022.4R


................COASTAL AND OFFSHORE BUOYS................


STATION/POSITION TIME  SKY/WX   TEMP    WIND        PRES    VSBY
                                AIR SEA DIR/SP/G
                 (UTC)          (F)     (DEG/KT/KT) (MB)    (MI)
DIMNDSHOAL 41025 1050            66 81   30/ 27/ 33 1020.0R
WVE H/P(F/S)=  8/ 8

CAPE LOOKOUT     1100            61      10/ 19/ 23 1021.5R
ONSLOW BAY 41036 NOT AVBL
ONSLOW BAY 41064 1008            65      40/ 23/ 31 1020.4R
ONSLOW BAY 41159 NOT AVBL
MASNBO INL 41110 1029               76                N/A
WVE H/P(F/S)=  6/ 6 SWL H/P/D(F/S/D)=  2/110/11

WILM HARBR 41108 1030               76                N/A
WVE H/P(F/S)=  6/ 7 SWL H/P/D(F/S/D)=  2/110/11

27SE WRITB 41037 1008            64 77   60/ 23/ 33 1020.5R
FRYING PAN 41013 1100            67 78   30/ 25/ 33 1020.2
SUNST NRSH 41024 1008            56 76   40/ 16/ 19 1022.1R
CAPRS NRSH 41029 1008            60 77   30/ 23/ 33 1020.6R
EDISTO     41004 1100            68 80   30/ 25/ 33 1019.6


..........OFFSHORE BUOYS BEYOND 100 NM OFFSHORE...........
.....IN A TRIANGLE---HAT TO BERMUDA TO BAHAMAS TO HAT.....


STATION/POSITION TIME  SKY/WX   TEMP    WIND        PRES    VSBY
                                AIR SEA DIR/SP/G
                 (UTC)          (F)     (DEG/KT/KT) (MB)    (MI)
150E HAT   41001 NOT AVBL
W BERMUDA  41048 1100            78 79  330/ 10/ 16 1012.7
ATLANTIC S 41049 1050            81 81  150/ 17/ 19 1018.7R
WVE H/P(F/S)=  8/ 9 SWL H/P/D(F/S/D)=  5/140/ 9

E BAHAMAS  41046 1100            80 82  150/ 14/ 17 1015.5
NE BAHAMAS 41047 1100            75 82  270/  2/  6 1014.9
120E CANVRL41010 NOT AVBL

END




USA.gov is the U.S. government's official web portal to all federal, state and local government web resources and services.